COSMOS 2251 DEB

基本信息
目录编号:
33836
目录名称:
COSMOS 2251 DEB
国际标识:
1993-036CD
轨道中心:
EARTH
物体状态:
在轨
发射日期:
1993-06-16 UTC
轨道信息
数据来源: 国际轨道数据
星历时间: 2026-09-11T13:14:56+0800
半长轴: 6994.906km
偏心率: 0.002325
轨道倾角: 73.993°
近地点辐角: 217.099°
升交点赤经: 79.128°
平近点角: 262.194°
近地点: 600.505km
远地点: 633.033km
周期: 97.036分钟
每日圈数: 14.839866
详细信息
发射场:
PKMTR
轨道高度:
LEO
数据来源:
AOE Integration Group
参考系:
TEME
时间系统:
UTC
历元类型:
SGP4
2D轨道图
3D轨道图
轨道高度分析图
轨道倾角分析图
轨道综合分析图
查看轨道综合分析图